DW4465 Weather Reports


time (UTC)temp
F
wind
direction
speed
knots
gust
knots
rain 1hr
in
rain 24hr
in
rain mn
in
humidity
%
barometer
mb
20260903011558 76 298 1.7 4.3 0.00 0.00 0.00 64 1013.9
20260903010056 76 311 1.7 5.2 0.00 0.00 0.00 62 1013.9
20260903004551 77 295 1.7 7.0 0.00 0.00 0.00 59 1013.9
20260903003050 79 290 1.7 7.0 0.00 0.00 0.00 55 1013.8
20260903001546 81 286 2.6 7.0 0.00 0.00 0.00 53 1013.8
20260903000056 82 314 1.7 7.0 0.00 0.00 0.00 48 1013.9
20260902234614 83 333 1.7 7.0 0.00 0.00 0.00 47 1013.8
20260902233048 84 260 1.7 6.1 0.00 0.00 0.00 45 1014.0
20260902231553 83 321 0.9 7.8 0.00 0.00 0.00 47 1014.0
20260902230050 83 227 1.7 5.2 0.00 0.00 0.00 50 1014.0
20260902224605 82 231 1.7 6.1 0.00 0.00 0.00 51 1014.1
20260902223051 82 160 2.6 7.8 0.00 0.00 0.00 51 1014.3
20260902221549 81 156 2.6 10.4 0.00 0.00 0.00 52 1014.5
20260902220050 82 223 2.6 7.8 0.00 0.00 0.00 50 1014.7
20260902214601 81 205 2.6 8.7 0.00 0.00 0.00 50 1014.9
20260902213050 80 194 5.2 9.6 0.00 0.00 0.00 53 1015.1
20260902211547 80 203 4.3 9.6 0.00 0.00 0.00 53 1015.1
20260902210057 81 221 4.3 10.4 0.00 0.00 0.00 54 1015.3
20260902204555 81 157 2.6 7.8 0.00 0.00 0.00 53 1015.4
20260902203049 80 213 2.6 7.0 0.00 0.00 0.00 54 1015.4
20260902201603 80 157 3.5 8.7 0.00 0.00 0.00 52 1015.5
20260902200057 80 221 3.5 7.8 0.00 0.00 0.00 55 1015.6
20260902194544 80 0 1.7 9.6 0.00 0.00 0.00 53 1015.7
20260902193051 80 175 0.9 5.2 0.00 0.00 0.00 53 1015.7
20260902191550 79 208 0.9 7.0 0.00 0.00 0.00 56 1016.0
20260902190058 78 244 2.6 6.1 0.00 0.00 0.00 58 1016.2
20260902184546 78 186 1.7 7.0 0.00 0.00 0.00 60 1016.4
20260902183048 77 209 1.7 6.1 0.00 0.00 0.00 61 1016.4
20260902181549 77 214 2.6 7.0 0.00 0.00 0.00 61 1016.4
20260902180049 77 221 0.9 6.1 0.00 0.00 0.00 62 1016.6
20260902174543 77 293 1.7 6.1 0.00 0.00 0.00 62 1016.6
20260902173050 75 17 1.7 4.3 0.00 0.00 0.00 63 1016.5
20260902171547 75 0 1.7 5.2 0.00 0.00 0.00 65 1016.4
20260902170051 74 167 1.7 5.2 0.00 0.00 0.00 67 1016.4
20260902164548 73 132 0.9 3.5 0.00 0.00 0.00 70 1016.4
20260902163045 72 119 0.0 4.3 0.00 0.00 0.00 73 1016.4
20260902161554 71 196 0.9 4.3 0.00 0.00 0.00 78 1016.3
20260902160050 69 196 0.9 3.5 0.00 0.00 0.00 82 1016.2
20260902154549 68 238 0.9 3.5 0.00 0.00 0.00 84 1016.2
20260902153054 66 170 0.9 3.5 0.00 0.00 0.00 86 1016.2
20260902151553 65 0 0.0 2.6 0.00 0.00 0.00 87 1016.3
20260902150049 63 190 0.0 2.6 0.00 0.00 0.00 87 1016.2
20260902144546 62 0 0.0 0.0 0.00 0.00 0.00 87 1016.2
20260902143057 61 0 0.0 0.9 0.00 0.00 0.00 87 1015.9
20260902141550 60 0 0.0 0.0 0.00 0.00 0.00 86 1015.8
20260902140049 59 0 0.0 0.0 0.00 0.00 0.00 86 1015.7
20260902134547 58 0 0.0 0.0 0.00 0.00 0.00 86 1015.7
20260902133047 59 0 0.0 0.0 0.00 0.00 0.00 85 1015.4
20260902131559 59 0 0.0 0.0 0.00 0.00 0.00 85 1015.5
20260902130047 59 0 0.0 0.0 0.00 0.00 0.00 85 1015.4
20260902124557 60 0 0.0 0.0 0.00 0.00 0.00 85 1015.4
20260902123045 60 0 0.0 0.0 0.00 0.00 0.00 85 1015.5
20260902121550 60 0 0.0 0.0 0.00 0.00 0.00 85 1015.7
20260902120048 61 0 0.0 0.0 0.00 0.00 0.00 85 1015.6
20260902114546 61 0 0.0 0.0 0.00 0.00 0.00 84 1015.6
20260902113059 61 0 0.0 0.0 0.00 0.00 0.00 84 1015.7
20260902111556 61 0 0.0 0.0 0.00 0.00 0.00 84 1015.6
20260902110047 61 0 0.0 0.0 0.00 0.00 0.00 84 1015.6
20260902104546 61 0 0.0 0.0 0.00 0.00 0.00 83 1015.6
20260902103048 61 0 0.0 0.0 0.00 0.00 0.00 83 1015.7
20260902101604 62 0 0.0 0.0 0.00 0.00 0.00 83 1015.7
20260902100049 62 0 0.0 0.0 0.00 0.00 0.00 83 1015.7
20260902094551 62 0 0.0 0.0 0.00 0.00 0.00 82 1015.8
20260902093045 62 0 0.0 0.0 0.00 0.00 0.00 82 1015.7
20260902091551 62 0 0.0 0.0 0.00 0.00 0.00 81 1015.7
20260902090047 62 0 0.0 0.0 0.00 0.00 0.00 81 1015.7
20260902084551 62 0 0.0 0.0 0.00 0.00 0.00 81 1015.8
20260902083046 63 0 0.0 0.0 0.00 0.00 0.00 80 1015.8
20260902081552 63 0 0.0 0.0 0.00 0.00 0.00 80 1015.9
20260902080059 63 0 0.0 0.0 0.00 0.00 0.00 79 1016.0
20260902074546 63 0 0.0 0.0 0.00 0.00 0.00 79 1016.0
20260902073044 63 0 0.0 0.0 0.00 0.00 0.00 79 1015.8
20260902071555 64 0 0.0 0.0 0.00 0.00 0.00 78 1015.6
20260902070051 64 0 0.0 0.0 0.00 0.00 0.00 77 1015.4
20260902064555 64 0 0.0 0.0 0.00 0.00 0.00 77 1015.4
20260902063047 65 0 0.0 0.0 0.00 0.00 0.00 76 1015.4
20260902060050 66 0 0.0 0.0 0.00 0.00 0.00 75 1015.3
20260902054550 66 0 0.0 0.0 0.00 0.00 0.00 75 1015.3
20260902053046 67 0 0.0 0.0 0.00 0.00 0.00 74 1015.3
20260902051556 67 0 0.0 1.7 0.00 0.00 0.00 74 1015.3
20260902050100 68 0 0.0 0.9 0.00 0.00 0.00 74 1015.1
20260902044547 68 0 0.0 1.7 0.00 0.00 0.00 74 1015.1
20260902043056 68 0 0.0 2.6 0.00 0.00 0.00 74 1014.9
20260902041555 69 317 0.0 2.6 0.00 0.00 0.00 73 1014.8
20260902040050 69 0 0.0 2.6 0.00 0.00 0.00 73 1014.5
20260902034552 69 313 0.9 5.2 0.00 0.00 0.00 73 1014.3
20260902033052 70 0 0.0 4.3 0.00 0.00 0.00 73 1014.2
20260902031547 70 0 0.9 2.6 0.00 0.00 0.00 72 1014.1
20260902030047 71 294 0.9 4.3 0.00 0.00 0.00 70 1013.9
20260902024547 71 325 0.9 3.5 0.00 0.00 0.00 69 1013.7
20260902023104 72 289 0.9 3.5 0.00 0.00 0.00 68 1013.5
20260902021608 73 0 0.9 5.2 0.00 0.00 0.00 67 1013.5
20260902020055 74 273 0.9 2.6 0.00 0.00 0.00 66 1013.6
20260902014543 74 330 0.9 3.5 0.00 0.00 0.00 64 1013.6
20260902013048 75 296 1.7 3.5 0.00 0.00 0.00 63 1013.6